Regional Weather Roundup
Issued by NWS Little Rock, AR

Home | Current Version | Previous Version | Graphics & Text | Print | Product List | Glossary On
Versions: 1 2 3 4 5 6 7 8 9 10 11 12 13 14 15 16 17 18 19 20 21 22 23 24 25 26 27 28 29 30 31 32 33 34 35 36 37 38 39 40 41 42 43 44 45 46 47 48 49 50
000
ASUS44 KLZK 020505
RWRLZK

WEATHER ROUNDUP FOR ARKANSAS
NATIONAL WEATHER SERVICE LITTLE ROCK AR
1200 AM CDT TUE SEP 02 2014

NOTE: "FAIR" INDICATES FEW OR NO CLOUDS BELOW 12,000 FEET WITH NO
SIGNIFICANT WEATHER AND/OR OBSTRUCTIONS TO VISIBILITY.

ARZ001-003-010-029-020600-
NORTHWEST ARKANSAS

CITY           SKY/WX    TMP DP  RH WIND       PRES   REMARKS
FAYETTEVILLE   CLOUDY    79  70  74 SW7       29.99R
FORT SMITH     CLOUDY    81  71  71 SE3       29.90R HX  85
HARRISON       CLOUDY    77  70  79 E3        29.99R
BENTONVILLE    CLOUDY    79  70  73 CALM      30.02R
ROGERS         CLOUDY    77  69  76 CALM      30.02R
HIGHFILL       CLOUDY    76  70  82 NW5       30.01R
$$

ARZ004-005-016-020600-
NORTH CENTRAL ARKANSAS

CITY           SKY/WX    TMP DP  RH WIND       PRES   REMARKS
BATESVILLE     PTCLDY    79  73  83 S3        29.95S
FLIPPIN        CLOUDY    77  66  69 CALM      29.97R
MTN HOME       CLOUDY    77  71  82 S3        29.97R
$$

ARZ040-041-020600-
WEST CENTRAL ARKANSAS

CITY           SKY/WX    TMP DP  RH WIND       PRES   REMARKS
MENA           CLEAR     82  73  74 S3        29.95F HX  88
MOUNT IDA      CLEAR     81  72  74 VRB6      29.93S HX  85
$$

ARZ009-017-025-026-028-020600-
NORTHEAST ARKANSAS

CITY           SKY/WX    TMP DP  RH WIND       PRES   REMARKS
CORNING          N/A     77  73  88 SW10      29.95R
JONESBORO      CLEAR     77  73  87 S6        29.95R
NEWPORT        CLEAR     76  74  93 S7        29.96R
WALNUT RIDGE   MOCLDY    77  59  53 S6        29.94R
BLYTHEVILLE    CLEAR     77  74  90 S7        29.97R
$$

ARZ022-023-033-042-044-020600-
CENTRAL ARKANSAS

CITY           SKY/WX    TMP DP  RH WIND       PRES   REMARKS
LITTLE ROCK    CLEAR     79  73  82 S7        29.95R
N LITTLE ROCK  CLEAR     80  76  86 S8G16     29.95R HX  85
JACKSONVILLE   CLEAR     78  74  87 SE3       29.95R
SEARCY         CLEAR     75  74  97 W3        29.96R
HOT SPRINGS    CLEAR     82  73  74 SW8       29.96R HX  87
RUSSELLVILLE   PTCLDY    79  73  82 S5        29.92F
CLINTON        FAIR      75  75 100 CALM      29.94S FOG
$$

ARZ036-020600-
EAST ARKANSAS

CITY           SKY/WX    TMP DP  RH WIND       PRES   REMARKS
WEST MEMPHIS   CLEAR     79  74  84 S14       29.97R
$$

ARZ050-053-066-070-073-020600-
SOUTHWEST ARKANSAS

CITY           SKY/WX    TMP DP  RH WIND       PRES   REMARKS
ARKADELPHIA    LGT RAIN  80  75  84 CALM      29.96R HX  85
CAMDEN         CLEAR     79  72  78 S5        29.96R
TEXARKANA      CLEAR     81  74  79 S7        29.95R HX  86
EL DORADO      CLEAR     77  73  87 S6        29.97R
DE QUEEN       CLEAR     77  73  87 SE3       29.92R
$$

ARZ056-057-069-020600-
SOUTHEAST ARKANSAS

CITY           SKY/WX    TMP DP  RH WIND       PRES   REMARKS
PINE BLUFF     CLEAR     78  72  81 S10       29.97R
STUTTGART      CLEAR     81  72  74 S12       29.98R
MONTICELLO     CLEAR     77  73  87 S3        29.98R

$$




USA.gov is the U.S. government's official web portal to all federal, state and local government web resources and services.